Flag for Japan Weather past 2 weeks in Hamamatsu, Japan

Now
60 °F

Cool.


Feels Like: 58 °F
Forecast: 58 / 69 °F
Wind: 9 mph from North

Location: Omaezaki

Current Time: Oct 24, 2014 at 3:08:42 AM

Latest Report: Oct 24, 2014 at 2:00 AM


Visibility: 13 mi

Pressure: 30.12 "Hg

Humidity: 80%

Dew point: 54 °F

Location of HamamatsuLocation

Historic Weather in Hamamatsu — Graph

°F

Hamamatsu temperature yesterday

Maximum temperature yesterday: 64 °F (at 2:00 PM)
Minimum temperature yesterday: 60 °F (at 5:00 AM)
Average temperature yesterday: 62 °F

Past Weeks' High & Low Weather Summary

 TemperatureHumidityPressure
High79 °F (Oct 14, 12:00 PM)100% (Oct 13, 2:00 PM)30.34 "Hg (Oct 13, 2:00 PM)
Low56 °F (Oct 16, 5:00 AM)35% (Oct 17, 11:00 AM)29.18 "Hg (Oct 14, 2:00 AM)
Average67 °F75%30.03 "Hg
* Reported Oct 9 1:00 AM — Oct 24 1:00 AM, Hamamatsu, Weather by CustomWeather, © 2014

Note: Actual official high and low records may vary slightly from our data, if they occured in-between our weather recording intervals... More about our weather records

Advertising

Hamamatsu weather history for previous 24 hours

 ConditionsComfort  
Time TempWeatherWind HumidityBarometerVisibility
1:00 AM
Oct 24
60 °FCool.10 mph79%30.11 "Hg12 mi
12:00 AM60 °FLight rain. Overcast.9 mph82%30.12 "Hg12 mi
11:00 PM
Oct 23
62 °FLight rain. Overcast.12 mph77%30.12 "Hg12 mi
10:00 PM62 °FCool.12 mph70%30.11 "Hg12 mi
9:00 PM62 °FCool.13 mph72%30.11 "Hg12 mi
8:00 PM62 °FCool.14 mph74%30.09 "Hg12 mi
7:00 PM62 °FCool.12 mph73%30.08 "Hg12 mi
6:00 PM63 °FMild.9 mph72%30.07 "Hg12 mi
5:00 PM63 °FMild.13 mph70%30.04 "Hg12 mi
4:00 PM63 °FMild.13 mph70%30.02 "Hg12 mi
3:00 PM63 °FMild.13 mph70%30.02 "Hg12 mi
2:00 PM64 °FMild.13 mph69%30.01 "Hg12 mi
1:00 PM64 °FMild.14 mph71%30.00 "Hg12 mi
12:00 PM62 °FMild.15 mph74%30.00 "Hg12 mi
11:00 AM62 °FCool.15 mph77%30.02 "Hg12 mi
10:00 AM60 °FLight rain. Cloudy.13 mph85%30.03 "Hg6 mi
9:00 AM62 °FMild.15 mph72%30.01 "Hg12 mi
8:00 AM63 °FLight rain. Cloudy.14 mph72%30.00 "Hg12 mi
7:00 AM61 °FCool.15 mph75%29.98 "Hg12 mi
6:00 AM61 °FCool.14 mph79%29.96 "Hg12 mi
5:00 AM60 °FRain. Cloudy.13 mph84%29.94 "Hg4 mi
4:00 AM62 °FLight rain. Overcast.17 mph80%29.90 "Hg12 mi
3:00 AM63 °FMild.17 mph71%29.90 "Hg12 mi
Weather by CustomWeather, © 2014

See weather overviewHow to use our weather pages